Location: Miami, Florida
(25.6830°N, 80.1700°W)
Time: 00:19:39
(UTC-04:00)

Hubble Space Telescope - Pass Details

Date: 17 November 2017
Orbit: 537 x 541 km, 28.5° (Epoch: 17 November)

Event Time Altitude Azimuth Distance (km) Brightness Sun altitude
Exits shadow 07:13:30 - 265° (W) 2,108 3.2 -6.5°
Reaches altitude 10° 07:14:21 10° 267° (W) 1,779 2.8 -6.3°
Maximum altitude 07:18:27 70° 351° (N) 570 0.8 -5.4°
Drops below altitude 10° 07:22:33 10° 75° (ENE) 1,783 4.4 -4.5°
Sets 07:24:50 0° 78° (ENE) 2,674 5.5 -4.1°
